Total_Precipitation_Accumulation
1.76 1.90 2.04 2.11 1.98 1.71 1.56 1.46 1.33 1.15 1.00 0.83 0.59 0.40 0.44 0.44 0.53 0.40 0.33 0.35 0.25 0.16 0.13 0.15 0.14 0.12 0.12 0.12 0.13 0.12 0.12 0.10 0.08 0.06 0.07 0.07 0.06 0.07
1.62 1.72 1.76 1.83 1.99 1.91 1.70 1.59 1.44 1.26 1.11 0.93 0.79 0.57 0.57 0.51 0.56 0.37 0.38 0.46 0.31 0.22 0.15 0.16 0.15 0.11 0.09 0.08 0.06 0.05 0.04 0.04 0.04 0.04 0.05 0.05 0.06 0.08
1.27 1.36 1.49 1.75 2.05 2.05 1.98 1.82 1.62 1.43 1.18 1.03 0.82 0.61 0.65 0.65 0.60 0.46 0.42 0.39 0.31 0.29 0.23 0.18 0.16 0.14 0.11 0.08 0.05 0.04 0.03 0.03 0.03 0.02 0.04 0.06 0.08 0.09
1.03 1.13 1.25 1.55 1.92 2.11 2.17 2.05 1.87 1.67 1.49 1.34 1.03 0.73 0.66 0.74 0.79 0.73 0.57 0.49 0.43 0.42 0.37 0.29 0.23 0.19 0.15 0.11 0.08 0.06 0.04 0.03 0.02 0.03 0.04 0.06 0.07 0.09
1.05 1.08 1.09 1.26 1.47 1.71 1.89 1.96 1.92 1.88 1.80 1.56 1.30 1.03 0.87 0.80 0.84 0.79 0.72 0.70 0.61 0.58 0.59 0.54 0.46 0.38 0.30 0.23 0.18 0.13 0.09 0.07 0.06 0.05 0.06 0.07 0.07 0.09
0.85 0.92 0.98 0.99 1.12 1.30 1.45 1.61 1.78 1.95 1.98 1.83 1.58 1.31 1.16 0.95 0.89 0.88 0.90 0.87 0.80 0.66 0.63 0.62 0.64 0.58 0.48 0.39 0.32 0.25 0.21 0.19 0.16 0.14 0.13 0.12 0.11 0.12
0.78 0.77 0.83 0.84 0.86 1.00 1.07 1.28 1.57 1.80 1.87 1.90 1.79 1.52 1.29 1.09 0.84 0.80 0.88 1.01 1.00 0.91 0.88 0.76 0.70 0.65 0.62 0.58 0.53 0.46 0.38 0.32 0.28 0.25 0.23 0.22 0.21 0.21
0.77 0.77 0.77 0.70 0.68 0.70 0.80 0.93 1.18 1.36 1.47 1.51 1.52 1.40 1.24 1.10 1.00 0.91 0.84 0.81 0.85 0.84 0.81 0.86 0.80 0.76 0.77 0.73 0.76 0.77 0.68 0.58 0.50 0.45 0.42 0.39 0.38 0.36
0.78 0.81 0.77 0.71 0.74 0.73 0.71 0.70 0.76 0.90 1.08 1.23 1.26 1.20 1.25 1.14 1.02 0.93 0.88 0.80 0.72 0.74 0.73 0.78 0.79 0.80 0.81 0.81 0.83 0.78 0.71 0.64 0.57 0.53 0.49 0.45 0.42 0.38
0.77 0.72 0.76 0.78 0.81 0.85 0.76 0.78 0.73 0.72 0.79 0.83 0.97 1.16 1.26 1.36 1.27 1.12 1.07 0.99 0.89 0.82 0.72 0.70 0.66 0.65 0.63 0.63 0.65 0.57 0.50 0.47 0.47 0.46 0.43 0.38 0.33 0.30
0.80 0.77 0.82 0.84 0.97 0.98 0.87 0.91 0.88 0.83 0.80 0.90 0.98 1.06 1.11 1.19 1.25 1.18 1.10 1.02 0.95 0.88 0.74 0.64 0.58 0.50 0.45 0.41 0.39 0.37 0.31 0.28 0.25 0.25 0.25 0.24 0.23 0.22
0.94 0.91 1.07 1.01 0.96 0.89 0.86 0.99 0.98 0.81 0.71 0.75 0.80 0.84 0.85 0.91 0.99 0.97 0.99 0.99 0.90 0.82 0.66 0.54 0.54 0.48 0.44 0.37 0.29 0.26 0.22 0.19 0.15 0.12 0.12 0.13 0.15 0.13
1.02 0.97 0.89 0.99 0.91 0.82 0.83 0.88 1.01 0.86 0.76 0.77 0.76 0.75 0.75 0.76 0.78 0.82 0.84 0.85 0.82 0.74 0.59 0.51 0.48 0.42 0.34 0.31 0.28 0.23 0.18 0.14 0.12 0.11 0.10 0.11 0.11 0.10
0.99 0.89 0.79 0.99 0.92 0.81 0.75 0.76 0.87 0.90 0.83 0.86 0.82 0.75 0.70 0.67 0.63 0.65 0.69 0.70 0.68 0.65 0.57 0.47 0.44 0.38 0.30 0.25 0.25 0.25 0.22 0.19 0.15 0.12 0.11 0.12 0.11 0.11
0.85 0.86 0.86 0.89 0.78 0.71 0.80 0.80 0.79 0.83 0.89 0.90 0.77 0.61 0.55 0.53 0.54 0.61 0.69 0.71 0.69 0.60 0.53 0.50 0.45 0.41 0.34 0.26 0.21 0.20 0.20 0.19 0.17 0.15 0.13 0.12 0.11 0.11
0.66 0.70 0.73 0.69 0.67 0.67 0.71 0.79 0.81 0.83 0.85 0.79 0.67 0.52 0.47 0.47 0.49 0.52 0.60 0.69 0.77 0.74 0.68 0.65 0.58 0.49 0.44 0.37 0.28 0.23 0.22 0.20 0.20 0.20 0.17 0.15 0.13 0.12
0.71 0.65 0.67 0.66 0.65 0.62 0.63 0.65 0.67 0.64 0.63 0.62 0.58 0.55 0.53 0.51 0.46 0.44 0.46 0.46 0.49 0.52 0.57 0.62 0.66 0.64 0.56 0.48 0.43 0.35 0.30 0.27 0.25 0.24 0.21 0.18 0.15 0.15
0.95 0.97 0.98 0.91 0.81 0.70 0.58 0.49 0.44 0.46 0.49 0.51 0.52 0.49 0.48 0.47 0.45 0.40 0.41 0.41 0.40 0.37 0.37 0.41 0.50 0.60 0.65 0.60 0.48 0.42 0.38 0.33 0.29 0.28 0.26 0.22 0.19 0.20
1.02 1.03 1.01 0.86 0.71 0.63 0.50 0.35 0.29 0.30 0.35 0.35 0.38 0.39 0.37 0.38 0.39 0.37 0.32 0.32 0.32 0.31 0.31 0.32 0.35 0.42 0.49 0.47 0.43 0.39 0.38 0.38 0.37 0.35 0.32 0.29 0.25 0.25
0.72 0.71 0.63 0.54 0.46 0.36 0.32 0.27 0.21 0.22 0.26 0.26 0.27 0.28 0.26 0.27 0.29 0.32 0.29 0.26 0.23 0.21 0.20 0.20 0.21 0.22 0.25 0.28 0.29 0.27 0.29 0.33 0.34 0.30 0.27 0.27 0.24 0.26
0.38 0.32 0.26 0.21 0.19 0.16 0.17 0.17 0.14 0.14 0.16 0.18 0.19 0.20 0.19 0.19 0.22 0.24 0.25 0.24 0.21 0.16 0.14 0.12 0.12 0.14 0.18 0.24 0.27 0.22 0.21 0.27 0.29 0.25 0.23 0.25 0.26 0.25
0.15 0.13 0.11 0.08 0.08 0.07 0.07 0.08 0.08 0.09 0.10 0.11 0.12 0.14 0.15 0.14 0.15 0.16 0.18 0.20 0.18 0.15 0.11 0.10 0.10 0.12 0.14 0.18 0.21 0.20 0.19 0.23 0.32 0.40 0.35 0.30 0.25 0.21
0.08 0.08 0.06 0.05 0.03 0.03 0.05 0.07 0.08 0.09 0.09 0.10 0.10 0.10 0.11 0.12 0.11 0.11 0.13 0.14 0.14 0.14 0.11 0.09 0.10 0.12 0.14 0.15 0.18 0.22 0.24 0.24 0.27 0.34 0.41 0.47 0.37 0.23